Prescott, AZ

10:14 AM MST on February 26, 2017 (GMT -0700)
Love

Weather History for KPRC - March, 2013

Change the Weather History Date:

Thursday, March 14, 2013

  Actual Average Record
Temperature  
Mean Temperature 58 °F 46 °F  
Max Temperature 78 °F 60 °F 79 °F (2013)
Min Temperature 37 °F 33 °F 12 °F (1952)
Degree Days  
Heating Degree Days 8    
Month to date heating degree days  
Since 1 July heating degree days  
Cooling Degree Days 0    
Month to date cooling degree days  
Year to date cooling degree days  
Growing Degree Days 8 (Base 50)    
Moisture  
Dew Point 24 °F    
Average Humidity 35    
Maximum Humidity 60    
Minimum Humidity 8    
Precipitation  
Precipitation 0.00 in 0.04 in 0.16 in (1986)
Month to date precipitation 0.56  
Year to date precipitation 3.07  
Sea Level Pressure  
Sea Level Pressure 30.13 in    
Wind  
Wind Speed 6 mph (South)    
Max Wind Speed 13 mph    
Max Gust Speed 18 mph    
Visibility 10 miles    
Events      
T = Trace of Precipitation, MM = Missing Value Source: NWS Daily Summary

Daily Weather History Graph

Daily Weather History Graph

Search for Another Location

Airport or City:

Trip Planner

Search our weather history database for the weather conditions in past years. The results will help you decide how hot, cold, wet, or windy it might be!

Date:

Astronomy

Mar. 14, 2013 Rise Set
Actual Time 6:41 AM MST 6:36 PM MST
Civil Twilight 6:16 AM MST 7:01 PM MST
Nautical Twilight 5:46 AM MST 7:31 PM MST
Astronomical Twilight 5:17 AM MST 8:00 PM MST
Moon 8:06 AM MST (3/14) 9:46 PM MST (3/14)
Length of Visible Light 12h 45m
Length of Day
11h 55m
Waxing Crescent, 9% of the Moon is Illuminated
Mar 14
Waxing Crescent
Mar 19
First Quarter
Mar 27
Full
Apr 2
Last Quarter
Apr 10
New

Hourly Weather History & Observations

Time (MST) Temp. Windchill Dew Point Humidity Pressure Visibility Wind Dir Wind Speed Gust Speed Precip Events Conditions
12:53 AM 44.1 °F 41.5 °F 27.0 °F 51% 30.14 in 10.0 mi SSW 4.6 mph - N/A   Clear
1:53 AM 41.0 °F 38.0 °F 27.0 °F 57% 30.14 in 10.0 mi SSW 4.6 mph - N/A   Clear
2:53 AM 39.9 °F 37.8 °F 26.1 °F 58% 30.14 in 10.0 mi South 3.5 mph - N/A   Clear
3:53 AM 39.0 °F 35.7 °F 26.1 °F 60% 30.15 in 10.0 mi SSW 4.6 mph - N/A   Clear
4:53 AM 37.9 °F 33.5 °F 25.0 °F 60% 30.15 in 10.0 mi South 5.8 mph - N/A   Clear
5:53 AM 37.9 °F 33.5 °F 25.0 °F 60% 30.17 in 10.0 mi SSW 5.8 mph - N/A   Clear
6:53 AM 37.9 °F 31.5 °F 25.0 °F 60% 30.20 in 10.0 mi South 9.2 mph - N/A   Clear
7:53 AM 45.0 °F 43.5 °F 27.0 °F 49% 30.21 in 10.0 mi SSW 3.5 mph - N/A   Clear
8:53 AM 55.0 °F - 26.1 °F 33% 30.21 in 10.0 mi NNW 4.6 mph - N/A   Clear
9:53 AM 59.0 °F - 25.0 °F 27% 30.22 in 10.0 mi North 3.5 mph - N/A   Clear
10:53 AM 66.0 °F - 25.0 °F 21% 30.18 in 10.0 mi Calm Calm - N/A   Clear
11:53 AM 72.0 °F - 23.0 °F 16% 30.16 in 10.0 mi Variable 4.6 mph - N/A   Clear
12:53 PM 75.9 °F - 19.0 °F 12% 30.12 in 10.0 mi ESE 12.7 mph 18.4 mph N/A   Clear
1:53 PM 77.0 °F - 15.1 °F 10% 30.09 in 10.0 mi ESE 11.5 mph 17.3 mph N/A   Clear
2:53 PM 77.0 °F - 15.1 °F 10% 30.07 in 10.0 mi SE 9.2 mph - N/A   Clear
3:53 PM 78.1 °F - 12.0 °F 8% 30.06 in 10.0 mi East 5.8 mph - N/A   Clear
4:53 PM 78.1 °F - 14.0 °F 9% 30.06 in 10.0 mi SE 5.8 mph - N/A   Clear
5:53 PM 75.9 °F - 18.0 °F 11% 30.06 in 10.0 mi SE 5.8 mph - N/A   Clear
6:53 PM 68.0 °F - 25.0 °F 20% 30.09 in 10.0 mi WSW 9.2 mph - N/A   Clear
7:53 PM 63.0 °F - 27.0 °F 26% 30.09 in 10.0 mi South 8.1 mph - N/A   Clear
8:53 PM 57.9 °F - 28.9 °F 33% 30.09 in 10.0 mi South 9.2 mph - N/A   Clear
9:53 PM 51.1 °F - 34.0 °F 52% 30.10 in 10.0 mi South 6.9 mph - N/A   Clear
10:53 PM 51.1 °F - 33.1 °F 50% 30.08 in 10.0 mi South 5.8 mph - N/A   Clear
11:53 PM 48.9 °F - 30.0 °F 48% 30.06 in 10.0 mi SSW 6.9 mph - N/A   Clear